Regional Weather Roundup
Issued by NWS Albany, NY

Home | Current Version | Previous Version | Text Only | Print | Product List | Glossary On
Versions: 1 2 3 4 5 6 7 8 9 10 11 12 13 14 15 16 17 18 19 20 21 22 23 24 25 26 27 28 29
000
ASUS41 KALY 281210
RWRALY

NEW YORK STATE HOURLY WEATHER ROUNDUP
NATIONAL WEATHER SERVICE ALBANY NY
800 AM EDT THU APR 28 2016

NOTE: "FAIR" INDICATES FEW OR NO CLOUDS BELOW 12,000 FEET WITH NO
SIGNIFICANT WEATHER AND/OR NO OBSTRUCTIONS TO VISIBILITY.

NYZ032-033-038>043-046>054-057>066-NYZ062>081-082-084-281300-
EAST


CITY           SKY/WX    TMP DP  RH WIND       PRES   REMARKS
ALBANY         PTSUNNY   43  22  43 N8        30.09R
GLENS FALLS    SUNNY     40  19  43 CALM      30.07R
POUGHKEEPSIE   CLOUDY    47  25  42 N9        30.06R
NEWBURGH       SUNNY     45  27  49 E12       30.06R
MONTGOMERY     MOSUNNY   45  32  60 CALM      30.06R
WHITE PLAINS   MOSUNNY   47  21  35 NE8       30.04R
ISLIP          CLOUDY    51  23  33 NE14      30.04R
NEW YORK CITY  CLOUDY    50  25  37 NE13      30.05R
CENTRAL PARK   CLOUDY    49  21  33 VRB5      30.08R
$$

NYZ005>009-017-018-044>046-055-056-281300-
CENTRAL


CITY           SKY/WX    TMP DP  RH WIND       PRES   REMARKS
FULTON         CLOUDY    43  26  51 CALM      30.11R
SYRACUSE       CLOUDY    38  30  73 CALM      30.10R
ROME           CLOUDY    34  26  72 CALM      30.12R
ELMIRA         CLOUDY    36  27  69 CALM      30.08R
BINGHAMTON     CLOUDY    36  22  56 E6        30.05R WCI  31
MONTICELLO     CLOUDY    41  23  48 CALM      30.05R
$$

NYZ026>034-041>043-087-281300-
NORTH


CITY           SKY/WX    TMP DP  RH WIND       PRES   REMARKS
WATERTOWN      CLOUDY    36  24  62 NE9       30.13R WCI  29
FORT DRUM      NOT AVBL
MASSENA        MOSUNNY   34  15  46 N12       30.15R WCI  25
SARANAC LAKE   SUNNY     30  16  56 N6        30.03R WCI  24
PLATTSBURGH    MOSUNNY   36  18  48 N20       30.10R WCI  25
$$

NYZ001>004-010>016-019>021-085-281300-
WEST


CITY           SKY/WX    TMP DP  RH WIND       PRES   REMARKS
NIAGARA FALLS  CLOUDY    40  28  62 NE14      30.06S WCI  32
BUFFALO        CLOUDY    38  25  59 E10       30.07R WCI  31
DUNKIRK        PTSUNNY   40  24  53 NE10      30.03R WCI  33
JAMESTOWN      CLOUDY    39  18  41 NE12      29.97F WCI  32
WELLSVILLE     CLOUDY    37  19  48 E7        30.04R WCI  32
ROCHESTER      CLOUDY    42  25  50 E10       30.10R
PENN YAN       MOSUNNY   40  26  57 VRB5      30.09R
$$

             KEY
       WCI = WIND CHILL INDEX
       VSB = VISIBILITY
       HX  = HEAT INDEX
$$




USA.gov is the U.S. government's official web portal to all federal, state and local government web resources and services.